Frederick, OK

10:00 AM CST on December 16, 2017 (GMT -0600)
Frederick Municipal

Weather History for KFDR - March, 2014

Change the Weather History Date:

Wednesday, March 5, 2014

  Actual Average (KLTS) Record (KLTS)
Temperature  
Mean Temperature 41 °F -  
Max Temperature 50 °F 58 °F 91 °F (2009)
Min Temperature 32 °F 33 °F 16 °F (2015)
Degree Days  
Heating Degree Days 24    
Moisture  
Dew Point 34 °F    
Average Humidity 85    
Maximum Humidity 93    
Minimum Humidity 61    
Precipitation  
Precipitation 0.05 in - - ()
Sea Level Pressure  
Sea Level Pressure 30.08 in    
Wind  
Wind Speed 12 mph (NNE)    
Max Wind Speed 23 mph    
Max Gust Speed 29 mph    
Visibility 6 miles    
Events Rain    
Averages and records for this station are not official NWS values.
T = Trace of Precipitation, MM = Missing Value Source: NWS Daily Summary

Daily Weather History Graph

Daily Weather History Graph

Search for Another Location

Airport or City:

Trip Planner

Search our weather history database for the weather conditions in past years. The results will help you decide how hot, cold, wet, or windy it might be!

Date:

Astronomy

Mar. 05, 2014 Rise Set
Actual Time 6:59 AM CST 6:35 PM CST
Civil Twilight 6:34 AM CST 7:00 PM CST
Nautical Twilight 6:05 AM CST 7:29 PM CST
Astronomical Twilight 5:36 AM CST 7:58 PM CST
Moon 9:39 AM CST (3/5) 11:31 PM CST (3/5)
Length of Visible Light 12h 26m
Length of Day
11h 35m
Waxing Crescent, 23% of the Moon is Illuminated
Mar 5
Waxing Crescent
Mar 8
First Quarter
Mar 16
Full
Mar 23
Last Quarter
Mar 30
New

Hourly Weather History & Observations

Time (CST) Temp. Windchill Dew Point Humidity Pressure Visibility Wind Dir Wind Speed Gust Speed Precip Events Conditions
12:53 AM 34.0 °F 26.6 °F 28.0 °F 79% 29.94 in 10.0 mi East 9.2 mph - N/A   Clear
1:53 AM 33.1 °F 25.5 °F 28.0 °F 82% 29.94 in 9.0 mi East 9.2 mph - N/A   Clear
2:53 AM 33.1 °F 25.5 °F 28.0 °F 82% 29.93 in 9.0 mi East 9.2 mph - N/A   Clear
3:53 AM 33.1 °F 24.4 °F 28.9 °F 85% 29.90 in 7.0 mi East 11.5 mph - N/A   Clear
4:53 AM 33.1 °F 24.4 °F 30.0 °F 89% 29.91 in 6.0 mi East 11.5 mph - N/A   Clear
5:53 AM 32.0 °F 23.0 °F 30.0 °F 92% 29.93 in 5.0 mi East 11.5 mph - N/A   Clear
6:53 AM 33.1 °F 23.9 °F 30.9 °F 92% 29.95 in 5.0 mi East 12.7 mph - N/A   Clear
7:53 AM 34.0 °F 25.0 °F 30.9 °F 89% 29.97 in 4.0 mi East 12.7 mph - N/A   Partly Cloudy
8:53 AM 35.1 °F 26.4 °F 32.0 °F 89% 30.00 in 4.0 mi East 12.7 mph - N/A   Overcast
9:39 AM 35.6 °F 28.6 °F 33.8 °F 93% 30.05 in 5.0 mi NNE 9.2 mph - N/A   Overcast
9:53 AM 37.0 °F 29.3 °F 33.1 °F 86% 30.06 in 5.0 mi NNE 11.5 mph - N/A   Mostly Cloudy
10:53 AM 41.0 °F 34.3 °F 34.0 °F 76% 30.05 in 6.0 mi NE 11.5 mph - N/A   Haze
11:53 AM 46.0 °F 43.1 °F 37.0 °F 71% 30.06 in 7.0 mi NE 5.8 mph - N/A   Scattered Clouds
12:14 PM 48.2 °F - 37.4 °F 66% 30.06 in 8.0 mi NE 9.2 mph 16.1 mph N/A   Mostly Cloudy
12:43 PM 48.2 °F - 37.4 °F 66% 30.05 in 8.0 mi North 11.5 mph - N/A   Scattered Clouds
12:53 PM 50.0 °F - 37.9 °F 63% 30.06 in 8.0 mi NNE 16.1 mph - N/A   Partly Cloudy
1:53 PM 50.0 °F - 37.0 °F 61% 30.05 in 10.0 mi NNE 12.7 mph 18.4 mph N/A   Partly Cloudy
2:53 PM 48.0 °F - 36.0 °F 63% 30.05 in 10.0 mi North 16.1 mph 20.7 mph 0.00 in   Overcast
3:53 PM 45.0 °F 38.2 °F 39.0 °F 80% 30.07 in 5.0 mi North 15.0 mph - 0.01 in Rain Light Rain
4:53 PM 43.0 °F 35.4 °F 39.0 °F 86% 30.11 in 4.0 mi North 16.1 mph - 0.04 in Rain Light Rain
5:53 PM 41.0 °F 31.1 °F 37.0 °F 86% 30.13 in 5.0 mi North 23.0 mph 28.8 mph 0.00 in   Overcast
6:53 PM 37.9 °F 27.9 °F 36.0 °F 93% 30.16 in 4.0 mi North 19.6 mph - 0.00 in Rain Light Rain
7:00 PM 37.4 °F 27.5 °F 35.6 °F 93% 30.15 in 5.0 mi North 18.4 mph - 0.00 in Rain Light Rain
7:23 PM 37.4 °F 27.5 °F 35.6 °F 93% 30.16 in 7.0 mi North 18.4 mph 24.2 mph 0.00 in   Overcast
7:53 PM 36.0 °F 25.3 °F 34.0 °F 93% 30.19 in 7.0 mi North 19.6 mph - 0.00 in   Mostly Cloudy
8:03 PM 35.6 °F 24.8 °F 33.8 °F 93% 30.18 in 6.0 mi North 19.6 mph - N/A   Overcast
8:25 PM 35.6 °F 25.2 °F 33.8 °F 93% 30.19 in 5.0 mi North 18.4 mph - N/A   Overcast
8:48 PM 35.6 °F 26.6 °F 33.8 °F 93% 30.20 in 5.0 mi North 13.8 mph - N/A   Overcast
8:53 PM 36.0 °F 27.1 °F 34.0 °F 93% 30.22 in 5.0 mi North 13.8 mph - N/A   Overcast
9:53 PM 36.0 °F 26.7 °F 34.0 °F 93% 30.24 in 5.0 mi North 15.0 mph - N/A   Overcast
10:40 PM 35.6 °F 26.6 °F 33.8 °F 93% 30.22 in 5.0 mi North 13.8 mph - N/A   Scattered Clouds
10:53 PM 35.1 °F 25.9 °F 33.1 °F 92% 30.24 in 5.0 mi North 13.8 mph - N/A   Partly Cloudy
11:53 PM 36.0 °F 28.0 °F 34.0 °F 93% 30.24 in 5.0 mi North 11.5 mph - N/A   Overcast